Content
SEND FEEDBACK

Daily
Averages
Monthly
Summary
United States of America

VERNON, VERMONT


Home > North America > United States > Vermont
Elevation: 73 meters     Latitude: 42 46N     Longitude: 072 31W

WEATHER
 
SELECT A DAY
Number of Records: 445,974;   Date Range: 1/1/95 - 8/30/14
 
SHARE

PRINT THIS DATA

[ ← Previous Day ]
WEATHER ALMANAC - 7 APRIL, 2014
[ Next Day → ]
[ °F ]   °C
Weather ElementAverageHighLow
Temperature6.1 °C15 °C (12:15 pm)-3 °C (5:55 am)
Dewpoint-5.3 °C2 °C (11:55 pm)-9 °C (8:55 pm)
Humidity49.5 %80 % (5:55 am)25 % (12:15 pm)
Barometer1020 hPa1023.7 hPa (8:15 am)1011.5 hPa (11:55 pm)
Wind Speed6.8 km/h24.1 km/h (1:15 pm)
Wind Gust33.3 km/h (12:35 pm)
Weather ElementAverage
Visibility15.9 km
Wind DirectionE (89.6 °)

Weather ElementTotal
Precipitation2.79 mm
Heating Degree Days12.3 (Base 18.3)
Averaged from 70 records on 7 April, 2014
WEATHER CONDITIONS BREAKOUT
WIND DIRECTION BREAKOUT
WEATHER BY HOUR - 7 APRIL, 2014
[ °F ]   °C
Local TimeTemperatureDewpointHumidityBarometerVisibilityWind DirectionWind SpeedGust SpeedPrecipitationEventsConditions
12:35 AM-1 °C-6 °C69 %1022.7 hPa16.1 kmCalmClear
12:55 AM-2 °C-7 °C69 %1022.7 hPa16.1 kmCalmClear
1:15 AM-2 °C-6 °C74 %1022 hPa16.1 kmNNE (30°)5.6 km/hClear
1:35 AM-1 °C-6 °C69 %1022.4 hPa16.1 kmCalmClear
1:55 AM-1 °C-6 °C69 %1022.4 hPa16.1 kmCalmClear
2:15 AM-2 °C-7 °C69 %1022.7 hPa16.1 kmCalmClear
2:35 AM-2 °C-6 °C74 %1022.4 hPa16.1 kmCalmClear
2:55 AM-2 °C-7 °C69 %1022.4 hPa16.1 kmSSW (200°)5.6 km/hClear
3:15 AM-2 °C-6 °C74 %1022.4 hPa16.1 kmCalmClear
3:35 AM-2 °C-6 °C74 %1022.7 hPa16.1 kmCalmClear
3:55 AM-2 °C-6 °C74 %1022.7 hPa16.1 kmCalmClear
4:15 AM-2 °C-6 °C74 %1022.7 hPa16.1 kmCalmClear
4:35 AM-2 °C-6 °C74 %1022.7 hPa16.1 kmCalmClear
4:55 AM-2 °C-6 °C74 %1022.4 hPa16.1 kmCalmClear
5:15 AM-2 °C-6 °C74 %1022.4 hPa16.1 kmCalmClear
5:35 AM-2 °C-6 °C74 %1022.4 hPa16.1 kmCalmClear
5:55 AM-3 °C-6 °C80 %1022.7 hPa16.1 kmSouth (180°)7.4 km/hClear
6:15 AM-3 °C-7 °C74 %1023 hPa16.1 kmCalmClear
6:35 AM-3 °C-7 °C74 %1023 hPa16.1 kmSSW (210°)5.6 km/hClear
6:55 AM-3 °C-7 °C74 %1022.7 hPa16.1 kmCalmClear
7:15 AM-3 °C-7 °C74 %1023 hPa16.1 kmSouth (190°)7.4 km/hClear
7:35 AM-2 °C-6 °C74 %1023 hPa16.1 kmCalmClear
7:55 AM-1 °C-5 °C75 %1023.4 hPa16.1 kmCalmClear
8:15 AM0 °C-4 °C75 %1023.7 hPa16.1 kmCalmClear
8:35 AM1 °C-5 °C65 %1023.7 hPa16.1 kmCalmClear
8:55 AM2 °C-4 °C65 %1023.7 hPa16.1 kmCalmClear
9:15 AM3 °C-4 °C60 %1023.7 hPa16.1 kmCalmClear
9:35 AM4 °C-4 °C56 %1023.7 hPa16.1 kmCalmClear
9:55 AM6 °C-4 °C49 %1023.4 hPa16.1 kmCalmClear
10:15 AM7 °C-4 °C46 %1023 hPa16.1 kmCalmClear
10:35 AM8 °C-3 °C46 %1022.7 hPa16.1 kmCalmClear
10:55 AM9 °C-3 °C43 %1022.4 hPa16.1 kmCalmClear
11:15 AM11 °C-3 °C38 %1022.4 hPa16.1 kmCalmClear
11:35 AM13 °C-3 °C33 %1022 hPa16.1 kmSSW (210°)9.3 km/hClear
11:55 AM14 °C-4 °C29 %1021.7 hPa16.1 kmSouth (180°)20.4 km/h27.8 km/hClear
12:15 PM15 °C-5 °C25 %1021.7 hPa16.1 kmSouth (190°)22.2 km/h29.6 km/hClear
12:35 PM14 °C-6 °C25 %1021.7 hPa16.1 kmSW (220°)20.4 km/h33.3 km/hClear
12:55 PM14 °C-5 °C27 %1021.7 hPa16.1 kmSSW (200°)22.2 km/hClear
1:15 PM14 °C-6 °C25 %1021.3 hPa16.1 kmSSW (200°)24.1 km/h31.5 km/hClear
1:35 PM14 °C-5 °C27 %1020.7 hPa16.1 kmSSW (200°)13 km/hClear
1:55 PM14 °C-5 °C27 %1020.3 hPa16.1 kmSouth (180°)20.4 km/hClear
2:15 PM14 °C-5 °C27 %1020 hPa16.1 kmSSW (200°)18.5 km/hClear
2:35 PM14 °C-5 °C27 %1019 hPa16.1 kmSSW (200°)11.1 km/hClear
2:55 PM14 °C-5 °C27 %1018.6 hPa16.1 kmSouth (180°)24.1 km/h33.3 km/hClear
3:15 PM14 °C-6 °C25 %1018.3 hPa16.1 kmSSE (160°)20.4 km/h33.3 km/hClear
3:35 PM14 °C-6 °C25 %1018.6 hPa16.1 kmSouth (170°)18.5 km/h33.3 km/hClear
4:15 PM14 °C-6 °C25 %1018.6 hPa16.1 kmSSW (200°)13 km/hClear
4:35 PM13 °C-6 °C26 %1018.6 hPa16.1 kmSouth (190°)18.5 km/hScattered Clouds
4:55 PM13 °C-6 °C26 %1019 hPa16.1 kmSouth (180°)13 km/hPartly Cloudy
5:15 PM13 °C-6 °C26 %1017.9 hPa16.1 kmCalmScattered Clouds
5:35 PM13 °C-7 °C25 %1017.6 hPa16.1 kmSW (220°)13 km/hMostly Cloudy
5:55 PM12 °C-6 °C28 %1017.6 hPa16.1 kmSouth (180°)13 km/hMostly Cloudy
6:15 PM12 °C-7 °C26 %1017.9 hPa16.1 kmSouth (190°)9.3 km/hMostly Cloudy
6:35 PM11 °C-6 °C30 %1017.6 hPa16.1 kmSouth (180°)9.3 km/hScattered Clouds
6:55 PM11 °C-6 °C30 %1017.3 hPa16.1 kmCalmPartly Cloudy
7:15 PM11 °C-7 °C28 %1016.6 hPa16.1 kmSSW (200°)9.3 km/hMostly Cloudy
7:35 PM11 °C-6 °C30 %1016.6 hPa16.1 kmSouth (170°)11.1 km/hMostly Cloudy
7:55 PM11 °C-7 °C28 %1016.3 hPa16.1 kmCalmOvercast
8:15 PM10 °C-7 °C30 %1016.3 hPa16.1 kmSouth (170°)5.6 km/hMostly Cloudy
8:35 PM10 °C-8 °C28 %1015.6 hPa16.1 kmESE (110°)11.1 km/hOvercast
8:55 PM9 °C-9 °C27 %1015.9 hPa16.1 kmSouth (170°)13 km/hOvercast
9:15 PM9 °C-9 °C27 %1015.2 hPa16.1 kmEast (80°)9.3 km/hMostly Cloudy
9:35 PM9 °C-9 °C27 %1015.2 hPa16.1 kmSouth (170°)13 km/hOvercast
9:55 PM9 °C-7 °C32 %1015.6 hPa16.1 kmSouth (180°)14.8 km/hOvercast
10:15 PM7 °C-3 °C49 %1014.9 hPa16.1 kmCalmOvercast
10:35 PM6 °C-1 °C61 %1014.2 hPa16.1 kmCalmOvercast
10:55 PM6 °C1 °C70 %1013.5 hPa12.9 kmCalm0.51 mmOvercast
11:15 PM6 °C0 °C66 %1013.2 hPa16.1 kmSSE (160°)5.6 km/h0.25 mmOvercast
11:35 PM6 °C1 °C70 %1012.5 hPa11.3 kmSE (130°)7.4 km/h1.02 mmOvercast
11:55 PM6 °C2 °C76 %1011.5 hPa14.5 kmEast (90°)5.6 km/h1.02 mmOvercast
Hourly data recorded from KEEN, located 0 kilometers away from Vernon, Vermont







STORIES FROM OUR PARTNERS